Location: Canon Road
(40.7761°N, 111.8849°W)
Time: 23:20:38
(UTC+00:00)

LightSail 2 - Visible Passes

Search period start: 06 April 2020 00:00
Search period end: 16 April 2020 00:00
Orbit: 694 x 724 km, 24.0° (Epoch: 06 April)

Date Brightness Start Highest point End Pass type
(mag) Time Alt. Az. Time Alt. Az. Time Alt. Az.
09 Apr 7.3 11:53:55 10° S 11:55:10 11° S 11:56:24 10° SSE visible
11 Apr 7.2 11:40:10 10° SSW 11:41:36 11° S 11:43:01 10° SSE visible
13 Apr 7.2 11:27:41 10° S 11:27:59 10° S 11:28:44 10° S visible
